| time (UTC) | temp F | wind direction | speed knots | gust knots | rain 1hr in | rain 24hr in | rain mn in | humidity % | barometer mb |
| 20260901104531 | 71 | 140 | 0.9 | 2.6 | 0.00 | 1.25 | 0.00 | 83 | 1017.5 |
| 20260901104026 | 71 | 140 | 0.9 | 2.6 | 0.00 | 1.25 | 0.00 | 82 | 1017.5 |
| 20260901103522 | 71 | 140 | 1.7 | 2.6 | 0.00 | 1.25 | 0.00 | 81 | 1017.5 |
| 20260901103017 | 72 | 141 | 0.9 | 2.6 | 0.00 | 1.25 | 0.00 | 81 | 1017.5 |
| 20260901102517 | 72 | 141 | 0.9 | 4.3 | 0.00 | 1.25 | 0.00 | 81 | 1017.4 |
| 20260901102013 | 72 | 141 | 1.7 | 4.3 | 0.00 | 1.25 | 0.00 | 81 | 1017.4 |
| 20260901101527 | 72 | 142 | 1.7 | 3.5 | 0.00 | 1.25 | 0.00 | 81 | 1017.2 |
| 20260901101023 | 72 | 143 | 1.7 | 2.6 | 0.00 | 1.25 | 0.00 | 81 | 1017.3 |
| 20260901100518 | 72 | 143 | 1.7 | 2.6 | 0.00 | 1.25 | 0.00 | 81 | 1017.2 |
| 20260901100045 | 72 | 144 | 0.9 | 2.6 | 0.00 | 1.25 | 0.00 | 80 | 1017.1 |
| 20260901095525 | 72 | 144 | 0.9 | 3.5 | 0.00 | 1.25 | 0.00 | 80 | 1017.2 |
| 20260901095023 | 72 | 144 | 0.9 | 3.5 | 0.00 | 1.25 | 0.00 | 81 | 1017.3 |
| 20260901094517 | 72 | 144 | 1.7 | 3.5 | 0.00 | 1.25 | 0.00 | 80 | 1017.3 |
| 20260901094011 | 72 | 146 | 1.7 | 3.5 | 0.00 | 1.25 | 0.00 | 78 | 1017.2 |
| 20260901093526 | 73 | 146 | 1.7 | 3.5 | 0.00 | 1.25 | 0.00 | 78 | 1017.2 |
| 20260901093020 | 73 | 148 | 1.7 | 3.5 | 0.00 | 1.25 | 0.00 | 78 | 1017.1 |
| 20260901092514 | 73 | 148 | 0.9 | 3.5 | 0.00 | 1.25 | 0.00 | 77 | 1017.2 |
| 20260901092028 | 72 | 148 | 0.9 | 1.7 | 0.00 | 1.25 | 0.00 | 78 | 1017.2 |
| 20260901091522 | 73 | 148 | 0.9 | 1.7 | 0.00 | 1.25 | 0.00 | 78 | 1017.2 |
| 20260901091021 | 72 | 148 | 0.0 | 2.6 | 0.00 | 1.25 | 0.00 | 79 | 1017.3 |
| 20260901090515 | 72 | 148 | 1.7 | 2.6 | 0.00 | 1.25 | 0.00 | 79 | 1017.3 |
| 20260901090042 | 72 | 148 | 1.7 | 2.6 | 0.00 | 1.25 | 0.00 | 79 | 1017.3 |
| 20260901085522 | 73 | 148 | 0.0 | 1.7 | 0.00 | 1.25 | 0.00 | 78 | 1017.3 |
| 20260901085016 | 73 | 148 | 0.0 | 1.7 | 0.00 | 1.25 | 0.00 | 78 | 1017.3 |
| 20260901084530 | 73 | 148 | 0.9 | 2.6 | 0.00 | 1.25 | 0.00 | 77 | 1017.3 |
| 20260901084025 | 73 | 148 | 0.9 | 2.6 | 0.00 | 1.25 | 0.00 | 77 | 1017.3 |
| 20260901083524 | 73 | 148 | 0.9 | 2.6 | 0.00 | 1.25 | 0.00 | 78 | 1017.3 |
| 20260901083018 | 73 | 148 | 0.9 | 2.6 | 0.00 | 1.25 | 0.00 | 77 | 1017.2 |
| 20260901082512 | 73 | 148 | 1.7 | 4.3 | 0.00 | 1.25 | 0.00 | 77 | 1017.3 |
| 20260901082027 | 73 | 148 | 1.7 | 4.3 | 0.00 | 1.25 | 0.00 | 77 | 1017.2 |
| 20260901081521 | 73 | 148 | 0.9 | 2.6 | 0.00 | 1.25 | 0.00 | 77 | 1017.4 |
| 20260901081016 | 73 | 148 | 1.7 | 2.6 | 0.00 | 1.25 | 0.00 | 76 | 1017.3 |
| 20260901080531 | 74 | 147 | 0.9 | 3.5 | 0.00 | 1.25 | 0.00 | 76 | 1017.5 |
| 20260901080038 | 73 | 147 | 0.9 | 3.5 | 0.00 | 1.25 | 0.00 | 76 | 1017.5 |
| 20260901075522 | 73 | 147 | 1.7 | 3.5 | 0.00 | 1.25 | 0.00 | 76 | 1017.4 |
| 20260901075017 | 73 | 147 | 1.7 | 2.6 | 0.00 | 1.25 | 0.00 | 77 | 1017.5 |
| 20260901074512 | 73 | 146 | 1.7 | 2.6 | 0.00 | 1.25 | 0.00 | 77 | 1017.4 |
| 20260901074026 | 73 | 146 | 0.9 | 1.7 | 0.00 | 1.25 | 0.00 | 77 | 1017.6 |
| 20260901073521 | 73 | 146 | 0.9 | 1.7 | 0.00 | 1.25 | 0.00 | 77 | 1017.6 |
| 20260901073015 | 73 | 146 | 0.0 | 2.6 | 0.00 | 1.25 | 0.00 | 76 | 1017.5 |
| 20260901072529 | 74 | 146 | 0.9 | 2.6 | 0.00 | 1.25 | 0.00 | 76 | 1017.6 |
| 20260901072028 | 74 | 146 | 0.9 | 2.6 | 0.00 | 1.25 | 0.00 | 75 | 1017.6 |
| 20260901071522 | 74 | 146 | 0.9 | 3.5 | 0.00 | 1.25 | 0.00 | 75 | 1017.6 |
| 20260901071016 | 74 | 146 | 1.7 | 3.5 | 0.00 | 1.25 | 0.00 | 74 | 1017.6 |
| 20260901070530 | 75 | 146 | 1.7 | 4.3 | 0.00 | 1.25 | 0.00 | 74 | 1017.5 |
| 20260901070037 | 75 | 146 | 1.7 | 4.3 | 0.00 | 1.25 | 0.00 | 74 | 1017.6 |
| 20260901065517 | 75 | 147 | 2.6 | 5.2 | 0.00 | 1.25 | 1.25 | 74 | 1017.5 |
| 20260901065012 | 75 | 140 | 2.6 | 5.2 | 0.00 | 1.25 | 1.25 | 74 | 1017.5 |
| 20260901064527 | 75 | 142 | 2.6 | 4.3 | 0.00 | 1.25 | 1.25 | 74 | 1017.6 |
| 20260901064025 | 75 | 142 | 1.7 | 4.3 | 0.00 | 1.25 | 1.25 | 74 | 1017.7 |
| 20260901063520 | 75 | 144 | 1.7 | 4.3 | 0.00 | 1.25 | 1.25 | 75 | 1017.7 |
| 20260901063014 | 74 | 148 | 2.6 | 5.2 | 0.00 | 1.25 | 1.25 | 76 | 1017.8 |
| 20260901062529 | 75 | 151 | 1.7 | 5.2 | 0.00 | 1.25 | 1.25 | 75 | 1017.8 |
| 20260901062023 | 75 | 159 | 2.6 | 5.2 | 0.00 | 1.25 | 1.25 | 75 | 1017.7 |
| 20260901061518 | 75 | 116 | 1.7 | 5.2 | 0.00 | 1.25 | 1.25 | 76 | 1017.9 |
| 20260901061012 | 75 | 115 | 2.6 | 5.2 | 0.00 | 1.25 | 1.25 | 76 | 1017.9 |
| 20260901060531 | 74 | 114 | 2.6 | 3.5 | 0.00 | 1.25 | 1.25 | 77 | 1017.8 |
| 20260901060036 | 74 | 113 | 1.7 | 3.5 | 0.00 | 1.25 | 1.25 | 77 | 1017.7 |
| 20260901055517 | 75 | 109 | 1.7 | 3.5 | 0.00 | 1.25 | 1.25 | 78 | 1017.7 |
| 20260901055031 | 75 | 109 | 1.7 | 3.5 | 0.00 | 1.25 | 1.25 | 78 | 1017.7 |
| 20260901054525 | 75 | 109 | 0.9 | 2.6 | 0.00 | 1.25 | 1.25 | 78 | 1017.7 |
| 20260901054020 | 75 | 109 | 1.7 | 2.6 | 0.00 | 1.25 | 1.25 | 77 | 1017.8 |
| 20260901053514 | 75 | 109 | 1.7 | 2.6 | 0.00 | 1.25 | 1.25 | 76 | 1017.7 |
| 20260901053013 | 75 | 109 | 1.7 | 4.3 | 0.00 | 1.25 | 1.25 | 77 | 1017.5 |
| 20260901052527 | 75 | 109 | 2.6 | 4.3 | 0.00 | 1.25 | 1.25 | 77 | 1017.5 |
| 20260901052021 | 75 | 106 | 2.6 | 4.3 | 0.00 | 1.25 | 1.25 | 77 | 1017.5 |
| 20260901051516 | 75 | 101 | 1.7 | 2.6 | 0.00 | 1.25 | 1.25 | 77 | 1017.6 |
| 20260901051031 | 75 | 101 | 1.7 | 2.6 | 0.00 | 1.25 | 1.25 | 77 | 1017.7 |
| 20260901050525 | 76 | 101 | 1.7 | 2.6 | 0.00 | 1.25 | 1.25 | 77 | 1017.7 |
| 20260901050032 | 76 | 101 | 1.7 | 3.5 | 0.00 | 1.25 | 1.25 | 76 | 1017.7 |
| 20260901045511 | 76 | 101 | 1.7 | 4.3 | 0.00 | 1.25 | 1.25 | 75 | 1017.8 |
| 20260901045030 | 76 | 101 | 2.6 | 4.3 | 0.00 | 1.25 | 1.25 | 75 | 1017.9 |
| 20260901044524 | 76 | 100 | 2.6 | 4.3 | 0.00 | 1.25 | 1.25 | 76 | 1017.9 |
| 20260901044019 | 76 | 99 | 1.7 | 3.5 | 0.00 | 1.25 | 1.25 | 76 | 1017.8 |
| 20260901043512 | 76 | 98 | 1.7 | 2.6 | 0.00 | 1.25 | 1.25 | 76 | 1017.9 |
| 20260901043026 | 76 | 98 | 1.7 | 3.5 | 0.00 | 1.25 | 1.25 | 76 | 1017.8 |
| 20260901042521 | 76 | 99 | 2.6 | 3.5 | 0.00 | 1.25 | 1.25 | 76 | 1017.6 |
| 20260901041520 | 76 | 99 | 1.7 | 2.6 | 0.00 | 1.25 | 1.25 | 76 | 1017.5 |
| 20260901041014 | 76 | 99 | 0.9 | 2.6 | 0.00 | 1.25 | 1.25 | 75 | 1017.5 |
| 20260901040528 | 76 | 99 | 0.9 | 2.6 | 0.00 | 1.25 | 1.25 | 75 | 1017.5 |
| 20260901040036 | 76 | 99 | 0.9 | 2.6 | 0.00 | 1.25 | 1.25 | 74 | 1017.5 |
| 20260901035517 | 76 | 99 | 0.9 | 2.6 | 0.00 | 1.25 | 1.25 | 75 | 1017.7 |
| 20260901035031 | 76 | 99 | 0.9 | 1.7 | 0.00 | 1.25 | 1.25 | 75 | 1017.5 |
| 20260901034525 | 75 | 99 | 0.9 | 1.7 | 0.00 | 1.25 | 1.25 | 78 | 1017.4 |
| 20260901034020 | 75 | 99 | 0.9 | 1.7 | 0.00 | 1.25 | 1.25 | 79 | 1017.4 |
| 20260901033518 | 76 | 99 | 0.0 | 0.0 | 0.00 | 1.25 | 1.25 | 77 | 1017.5 |
| 20260901033033 | 76 | 99 | 0.0 | 1.7 | 0.00 | 1.25 | 1.25 | 75 | 1017.4 |
| 20260901032527 | 75 | 99 | 0.9 | 1.7 | 0.00 | 1.25 | 1.25 | 77 | 1017.3 |
| 20260901032021 | 75 | 99 | 0.9 | 1.7 | 0.00 | 1.25 | 1.25 | 79 | 1017.2 |
| 20260901031515 | 76 | 99 | 0.9 | 1.7 | 0.00 | 1.25 | 1.25 | 78 | 1017.2 |
| 20260901031029 | 76 | 99 | 0.0 | 0.9 | 0.00 | 1.25 | 1.25 | 75 | 1017.1 |
| 20260901030524 | 76 | 99 | 0.0 | 0.9 | 0.00 | 1.25 | 1.25 | 74 | 1017.1 |
| 20260901030034 | 76 | 99 | 0.9 | 1.7 | 0.00 | 1.25 | 1.25 | 74 | 1017.0 |
| 20260901025534 | 77 | 99 | 0.0 | 1.7 | 0.00 | 1.25 | 1.25 | 74 | 1017.0 |
| 20260901025029 | 76 | 99 | 0.0 | 1.7 | 0.00 | 1.25 | 1.25 | 74 | 1016.9 |
| 20260901024524 | 76 | 99 | 0.9 | 1.7 | 0.00 | 1.25 | 1.25 | 74 | 1017.0 |
| 20260901024018 | 77 | 99 | 0.0 | 1.7 | 0.00 | 1.25 | 1.25 | 73 | 1016.7 |
| 20260901023533 | 77 | 99 | 0.9 | 1.7 | 0.00 | 1.25 | 1.25 | 72 | 1016.7 |
| 20260901023027 | 77 | 99 | 0.9 | 2.6 | 0.00 | 1.25 | 1.25 | 70 | 1016.6 |
| 20260901022522 | 77 | 99 | 1.7 | 2.6 | 0.00 | 1.25 | 1.25 | 70 | 1016.4 |
| 20260901022022 | 77 | 99 | 0.0 | 1.7 | 0.00 | 1.25 | 1.25 | 70 | 1016.4 |
| 20260901021518 | 77 | 99 | 0.9 | 1.7 | 0.00 | 1.25 | 1.25 | 70 | 1016.5 |
| 20260901021033 | 77 | 99 | 0.9 | 2.6 | 0.00 | 1.25 | 1.25 | 69 | 1016.4 |
| 20260901020528 | 78 | 99 | 0.9 | 2.6 | 0.00 | 1.25 | 1.25 | 69 | 1016.0 |
| 20260901020035 | 78 | 99 | 0.9 | 1.7 | 0.00 | 1.25 | 1.25 | 69 | 1016.0 |
| 20260901015515 | 78 | 99 | 0.9 | 1.7 | 0.00 | 1.25 | 1.25 | 68 | 1016.0 |
| 20260901015030 | 78 | 99 | 0.9 | 1.7 | 0.00 | 1.25 | 1.25 | 69 | 1016.0 |
| 20260901014529 | 78 | 99 | 0.0 | 1.7 | 0.00 | 1.25 | 1.25 | 71 | 1016.0 |
| 20260901014024 | 78 | 98 | 0.9 | 1.7 | 0.00 | 1.25 | 1.25 | 70 | 1015.9 |
| 20260901013518 | 77 | 99 | 0.0 | 2.6 | 0.00 | 1.25 | 1.25 | 71 | 1015.9 |
| 20260901013032 | 78 | 99 | 0.0 | 3.5 | 0.00 | 1.25 | 1.25 | 68 | 1015.7 |
| 20260901012526 | 78 | 99 | 1.7 | 3.5 | 0.00 | 1.25 | 1.25 | 68 | 1015.4 |
| 20260901012021 | 78 | 98 | 0.9 | 1.7 | 0.00 | 1.25 | 1.25 | 68 | 1015.5 |
| 20260901011515 | 78 | 98 | 0.9 | 2.6 | 0.00 | 1.25 | 1.25 | 68 | 1015.5 |
| 20260901011029 | 78 | 98 | 0.9 | 2.6 | 0.00 | 1.25 | 1.25 | 68 | 1015.4 |
| 20260901010529 | 79 | 98 | 1.7 | 3.5 | 0.00 | 1.25 | 1.25 | 68 | 1015.5 |
| 20260901010034 | 79 | 99 | 1.7 | 3.5 | 0.00 | 1.25 | 1.25 | 68 | 1015.4 |
| 20260901005515 | 79 | 99 | 2.6 | 3.5 | 0.00 | 1.25 | 1.25 | 67 | 1015.4 |
| 20260901005030 | 79 | 98 | 2.6 | 3.5 | 0.00 | 1.25 | 1.25 | 67 | 1015.5 |
| 20260901004524 | 79 | 99 | 1.7 | 4.3 | 0.00 | 1.25 | 1.25 | 67 | 1015.5 |
| 20260901004018 | 79 | 99 | 2.6 | 4.3 | 0.00 | 1.25 | 1.25 | 66 | 1015.6 |
| 20260901003533 | 79 | 100 | 2.6 | 4.3 | 0.00 | 1.25 | 1.25 | 65 | 1015.5 |
| 20260901003032 | 79 | 100 | 1.7 | 2.6 | 0.00 | 1.25 | 1.25 | 66 | 1015.5 |
| 20260901002526 | 79 | 100 | 0.9 | 2.6 | 0.00 | 1.25 | 1.25 | 68 | 1015.7 |
| 20260901002020 | 79 | 100 | 0.9 | 4.3 | 0.00 | 1.25 | 1.25 | 67 | 1015.8 |
| 20260901001514 | 79 | 100 | 2.6 | 4.3 | 0.00 | 1.25 | 1.25 | 67 | 1015.8 |
| 20260901001028 | 79 | 108 | 1.7 | 4.3 | 0.00 | 1.25 | 1.25 | 68 | 1015.8 |
| 20260901000523 | 79 | 146 | 1.7 | 4.3 | 0.00 | 1.25 | 1.25 | 67 | 1015.8 |
| 20260901000029 | 79 | 148 | 1.7 | 4.3 | 0.00 | 1.25 | 1.25 | 66 | 1015.8 |
| 20260831235529 | 79 | 149 | 1.7 | 7.0 | 0.00 | 1.25 | 1.25 | 66 | 1015.9 |
| 20260831235027 | 80 | 133 | 2.6 | 7.0 | 0.00 | 1.25 | 1.25 | 67 | 1016.0 |
| 20260831234522 | 79 | 137 | 2.6 | 5.2 | 0.00 | 1.25 | 1.25 | 67 | 1016.0 |
| 20260831234017 | 79 | 207 | 1.7 | 5.2 | 0.00 | 1.25 | 1.25 | 67 | 1015.9 |
| 20260831233531 | 78 | 110 | 3.5 | 7.0 | 0.00 | 1.25 | 1.25 | 68 | 1016.1 |
| 20260831233026 | 78 | 115 | 4.3 | 7.0 | 0.00 | 1.25 | 1.25 | 68 | 1016.0 |
| 20260831232521 | 78 | 109 | 3.5 | 7.0 | 0.00 | 1.25 | 1.25 | 68 | 1016.0 |
| 20260831232015 | 79 | 92 | 4.3 | 7.0 | 0.00 | 1.25 | 1.25 | 67 | 1016.1 |
| 20260831231534 | 78 | 129 | 4.3 | 7.8 | 0.00 | 1.25 | 1.25 | 64 | 1016.3 |
| 20260831231025 | 78 | 116 | 3.5 | 7.8 | 0.00 | 1.25 | 1.25 | 64 | 1016.1 |
| 20260831230519 | 78 | 77 | 4.3 | 7.8 | 0.00 | 1.25 | 1.25 | 67 | 1016.1 |
| 20260831230046 | 78 | 110 | 4.3 | 7.8 | 0.00 | 1.25 | 1.25 | 67 | 1016.1 |
| 20260831225528 | 78 | 104 | 4.3 | 9.6 | 0.00 | 1.25 | 1.25 | 68 | 1016.1 |
| 20260831225022 | 77 | 124 | 5.2 | 11.3 | 0.00 | 1.25 | 1.25 | 68 | 1016.3 |
| 20260831224517 | 78 | 99 | 4.3 | 12.2 | 0.00 | 1.25 | 1.25 | 70 | 1016.4 |
| 20260831224016 | 77 | 113 | 7.0 | 13.0 | 0.00 | 1.25 | 1.25 | 70 | 1016.4 |
| 20260831223530 | 77 | 104 | 7.0 | 12.2 | 0.00 | 1.25 | 1.25 | 70 | 1016.5 |
| 20260831223023 | 77 | 185 | 5.2 | 10.4 | 0.00 | 1.25 | 1.25 | 72 | 1016.7 |
| 20260831222517 | 77 | 140 | 3.5 | 10.4 | 0.00 | 1.25 | 1.25 | 75 | 1016.7 |
| 20260831222030 | 76 | 146 | 5.2 | 9.6 | 0.00 | 1.25 | 1.25 | 75 | 1016.7 |
| 20260831221524 | 76 | 136 | 4.3 | 9.6 | 0.00 | 1.25 | 1.25 | 75 | 1016.8 |
| 20260831221018 | 76 | 122 | 6.1 | 9.6 | 0.00 | 1.25 | 1.25 | 75 | 1016.9 |
| 20260831220532 | 76 | 112 | 4.3 | 9.6 | 0.00 | 1.25 | 1.25 | 77 | 1017.0 |
| 20260831220042 | 76 | 140 | 5.2 | 9.6 | 0.00 | 1.25 | 1.25 | 78 | 1017.1 |
| 20260831215520 | 75 | 122 | 4.3 | 9.6 | 0.00 | 1.25 | 1.25 | 79 | 1017.3 |
| 20260831215034 | 75 | 111 | 5.2 | 9.6 | 0.00 | 1.25 | 1.25 | 78 | 1017.4 |
| 20260831214528 | 75 | 133 | 5.2 | 9.6 | 0.00 | 1.25 | 1.25 | 80 | 1017.4 |
| 20260831214022 | 74 | 134 | 2.6 | 7.8 | 0.01 | 1.25 | 1.25 | 83 | 1017.5 |
| 20260831213516 | 74 | 204 | 2.6 | 5.2 | 0.01 | 1.25 | 1.25 | 85 | 1017.8 |
| 20260831213031 | 73 | 159 | 2.6 | 5.2 | 0.02 | 1.25 | 1.25 | 87 | 1018.2 |
| 20260831212525 | 72 | 191 | 2.6 | 5.2 | 0.03 | 1.25 | 1.25 | 90 | 1018.3 |
| 20260831212023 | 71 | 204 | 1.7 | 5.2 | 0.03 | 1.25 | 1.25 | 91 | 1018.3 |
| 20260831211517 | 70 | 200 | 1.7 | 4.3 | 0.05 | 1.25 | 1.25 | 92 | 1018.5 |
| 20260831211032 | 70 | 134 | 1.7 | 7.0 | 0.06 | 1.25 | 1.25 | 92 | 1018.6 |
| 20260831210525 | 69 | 206 | 1.7 | 7.8 | 0.07 | 1.25 | 1.25 | 92 | 1018.8 |
| 20260831210031 | 69 | 137 | 2.6 | 8.7 | 0.07 | 1.25 | 1.25 | 92 | 1019.1 |
| 20260831205531 | 69 | 142 | 3.5 | 8.7 | 0.08 | 1.25 | 1.25 | 92 | 1019.2 |
| 20260831205025 | 68 | 216 | 3.5 | 7.0 | 0.08 | 1.25 | 1.25 | 92 | 1019.5 |
| 20260831204523 | 68 | 173 | 1.7 | 8.7 | 0.09 | 1.25 | 1.25 | 92 | 1019.4 |
| 20260831204016 | 68 | 124 | 5.2 | 8.7 | 0.09 | 1.24 | 1.24 | 92 | 1019.3 |
| 20260831203530 | 68 | 92 | 4.3 | 7.0 | 0.10 | 1.24 | 1.24 | 92 | 1019.5 |
| 20260831203024 | 68 | 117 | 3.5 | 7.0 | 0.10 | 1.23 | 1.23 | 92 | 1019.9 |
| 20260831202518 | 68 | 130 | 3.5 | 5.2 | 0.09 | 1.22 | 1.22 | 92 | 1020.2 |
| 20260831202033 | 68 | 135 | 1.7 | 7.0 | 0.10 | 1.22 | 1.22 | 92 | 1020.4 |
| 20260831201527 | 68 | 135 | 3.5 | 7.0 | 0.08 | 1.20 | 1.20 | 93 | 1020.4 |
| 20260831201021 | 68 | 117 | 1.7 | 4.3 | 0.08 | 1.19 | 1.19 | 93 | 1020.7 |
| 20260831200519 | 68 | 129 | 1.7 | 7.0 | 0.07 | 1.18 | 1.18 | 93 | 1020.8 |
| 20260831200047 | 68 | 125 | 3.5 | 7.0 | 0.08 | 1.18 | 1.18 | 92 | 1020.7 |
| 20260831195527 | 68 | 135 | 3.5 | 7.0 | 0.07 | 1.17 | 1.17 | 93 | 1020.8 |
| 20260831195020 | 68 | 124 | 2.6 | 5.2 | 0.09 | 1.17 | 1.17 | 93 | 1020.9 |
| 20260831194514 | 68 | 177 | 2.6 | 6.1 | 0.09 | 1.16 | 1.16 | 93 | 1021.0 |
| 20260831194029 | 67 | 253 | 1.7 | 6.1 | 0.08 | 1.15 | 1.15 | 93 | 1021.2 |
| 20260831193524 | 68 | 254 | 2.6 | 6.1 | 0.08 | 1.14 | 1.14 | 93 | 1021.3 |
| 20260831193023 | 68 | 274 | 2.6 | 6.1 | 0.08 | 1.13 | 1.13 | 93 | 1021.3 |
| 20260831192517 | 69 | 312 | 0.9 | 4.3 | 0.09 | 1.13 | 1.13 | 93 | 1021.3 |
| 20260831192032 | 68 | 312 | 1.7 | 3.5 | 0.09 | 1.12 | 1.12 | 93 | 1021.3 |
| 20260831191526 | 68 | 313 | 1.7 | 2.6 | 0.09 | 1.12 | 1.12 | 93 | 1021.4 |
| 20260831191020 | 68 | 313 | 0.9 | 2.6 | 0.09 | 1.11 | 1.11 | 92 | 1021.3 |
| 20260831190515 | 69 | 314 | 0.9 | 4.3 | 0.15 | 1.11 | 1.11 | 93 | 1021.2 |
| 20260831190043 | 68 | 314 | 1.7 | 4.3 | 0.24 | 1.10 | 1.10 | 92 | 1021.4 |
| 20260831185522 | 68 | 314 | 0.9 | 2.6 | 0.29 | 1.10 | 1.10 | 92 | 1021.8 |
| 20260831185020 | 69 | 314 | 0.9 | 2.6 | 0.32 | 1.08 | 1.08 | 92 | 1021.8 |
| 20260831184514 | 68 | 314 | 0.0 | 1.7 | 0.32 | 1.07 | 1.07 | 92 | 1021.8 |
| 20260831184028 | 68 | 314 | 0.0 | 1.7 | 0.32 | 1.07 | 1.07 | 92 | 1021.9 |
| 20260831183522 | 69 | 314 | 0.0 | 0.9 | 0.31 | 1.06 | 1.06 | 92 | 1021.7 |
| 20260831183015 | 68 | 314 | 0.0 | 2.6 | 0.31 | 1.05 | 1.05 | 92 | 1021.7 |
| 20260831182529 | 68 | 314 | 0.9 | 4.3 | 0.30 | 1.04 | 1.04 | 92 | 1021.4 |
| 20260831182023 | 68 | 315 | 0.9 | 6.1 | 0.30 | 1.03 | 1.03 | 92 | 1021.4 |
| 20260831181521 | 68 | 295 | 2.6 | 7.0 | 0.36 | 1.03 | 1.03 | 92 | 1021.5 |
| 20260831181015 | 68 | 287 | 2.6 | 9.6 | 0.48 | 1.01 | 1.01 | 92 | 1021.6 |
| 20260831180529 | 68 | 289 | 3.5 | 9.6 | 0.47 | 0.96 | 0.96 | 92 | 1021.8 |
| 20260831180036 | 68 | 280 | 5.2 | 8.7 | 0.37 | 0.86 | 0.86 | 91 | 1021.8 |
| 20260831175515 | 69 | 299 | 1.7 | 4.3 | 0.31 | 0.80 | 0.80 | 91 | 1021.8 |
| 20260831175029 | 69 | 297 | 1.7 | 7.0 | 0.27 | 0.76 | 0.76 | 91 | 1021.8 |
| 20260831174523 | 69 | 296 | 1.7 | 7.0 | 0.26 | 0.75 | 0.75 | 91 | 1021.6 |
| 20260831174017 | 70 | 325 | 0.9 | 4.3 | 0.26 | 0.75 | 0.75 | 91 | 1021.6 |
| 20260831173515 | 70 | 325 | 1.7 | 4.3 | 0.26 | 0.75 | 0.75 | 91 | 1021.4 |
| 20260831173030 | 70 | 314 | 1.7 | 4.3 | 0.25 | 0.74 | 0.74 | 90 | 1021.2 |
| 20260831172524 | 70 | 304 | 0.9 | 2.6 | 0.25 | 0.74 | 0.74 | 90 | 1021.2 |
| 20260831172018 | 70 | 302 | 1.7 | 5.2 | 0.24 | 0.73 | 0.73 | 89 | 1021.2 |
| 20260831171532 | 71 | 290 | 1.7 | 8.7 | 0.18 | 0.67 | 0.67 | 87 | 1020.9 |
| 20260831171026 | 72 | 288 | 3.5 | 8.7 | 0.04 | 0.53 | 0.53 | 83 | 1020.7 |
| 20260831170521 | 74 | 295 | 2.6 | 8.7 | 0.00 | 0.49 | 0.49 | 80 | 1020.7 |
| 20260831170030 | 74 | 285 | 2.6 | 6.1 | 0.00 | 0.49 | 0.49 | 82 | 1020.7 |
| 20260831165529 | 74 | 315 | 0.9 | 7.8 | 0.00 | 0.49 | 0.49 | 81 | 1020.7 |
| 20260831165023 | 76 | 325 | 3.5 | 7.8 | 0.00 | 0.49 | 0.49 | 76 | 1020.3 |
| 20260831164517 | 76 | 297 | 1.7 | 6.1 | 0.00 | 0.49 | 0.49 | 74 | 1020.2 |
| 20260831164031 | 77 | 338 | 0.9 | 3.5 | 0.00 | 0.49 | 0.49 | 75 | 1019.9 |
| 20260831163525 | 77 | 354 | 0.9 | 3.5 | 0.00 | 0.49 | 0.49 | 75 | 1019.8 |
| 20260831163019 | 76 | 354 | 0.9 | 2.6 | 0.00 | 0.49 | 0.49 | 75 | 1019.9 |
| 20260831162533 | 76 | 354 | 0.9 | 4.3 | 0.00 | 0.49 | 0.49 | 76 | 1019.7 |
| 20260831162031 | 76 | 354 | 1.7 | 6.1 | 0.00 | 0.49 | 0.49 | 75 | 1019.7 |
| 20260831161525 | 77 | 354 | 0.9 | 6.1 | 0.00 | 0.49 | 0.49 | 76 | 1019.4 |
| 20260831161019 | 77 | 334 | 2.6 | 4.3 | 0.00 | 0.49 | 0.49 | 75 | 1019.3 |
| 20260831160532 | 77 | 323 | 1.7 | 5.2 | 0.00 | 0.49 | 0.49 | 76 | 1019.2 |
| 20260831160039 | 78 | 356 | 1.7 | 5.2 | 0.00 | 0.49 | 0.49 | 74 | 1019.0 |
| 20260831155518 | 78 | 4 | 2.6 | 5.2 | 0.00 | 0.49 | 0.49 | 74 | 1019.0 |
| 20260831155032 | 77 | 4 | 1.7 | 4.3 | 0.00 | 0.49 | 0.49 | 74 | 1018.9 |
| 20260831154526 | 78 | 4 | 2.6 | 4.3 | 0.00 | 0.49 | 0.49 | 73 | 1018.8 |
| 20260831154023 | 78 | 341 | 2.6 | 4.3 | 0.00 | 0.49 | 0.49 | 73 | 1018.7 |
| 20260831153517 | 77 | 329 | 1.7 | 5.2 | 0.00 | 0.49 | 0.49 | 75 | 1018.6 |
| 20260831153031 | 77 | 314 | 2.6 | 5.2 | 0.00 | 0.49 | 0.49 | 75 | 1018.5 |
| 20260831152524 | 77 | 310 | 0.9 | 3.5 | 0.00 | 0.49 | 0.49 | 78 | 1018.5 |
| 20260831152017 | 76 | 310 | 0.9 | 4.3 | 0.00 | 0.49 | 0.49 | 83 | 1018.5 |
| 20260831151531 | 75 | 310 | 1.7 | 2.6 | 0.00 | 0.49 | 0.49 | 82 | 1018.4 |
| 20260831151025 | 74 | 310 | 0.0 | 2.6 | 0.00 | 0.49 | 0.49 | 82 | 1018.5 |
| 20260831150523 | 74 | 310 | 0.0 | 4.3 | 0.00 | 0.49 | 0.49 | 85 | 1018.4 |
| 20260831150028 | 73 | 310 | 0.9 | 4.3 | 0.00 | 0.49 | 0.49 | 87 | 1018.2 |
| 20260831145529 | 73 | 312 | 2.6 | 5.2 | 0.00 | 0.49 | 0.49 | 87 | 1018.2 |
| 20260831145023 | 73 | 337 | 1.7 | 3.5 | 0.00 | 0.49 | 0.49 | 86 | 1018.0 |
| 20260831144517 | 74 | 19 | 0.9 | 2.6 | 0.00 | 0.49 | 0.49 | 86 | 1018.0 |
| 20260831144031 | 74 | 21 | 0.9 | 2.6 | 0.00 | 0.49 | 0.49 | 85 | 1018.0 |
| 20260831143525 | 74 | 21 | 0.0 | 2.6 | 0.00 | 0.49 | 0.49 | 84 | 1017.9 |
| 20260831143018 | 73 | 21 | 0.0 | 4.3 | 0.00 | 0.49 | 0.49 | 85 | 1017.9 |
| 20260831142516 | 72 | 21 | 1.7 | 5.2 | 0.01 | 0.49 | 0.49 | 84 | 1017.8 |
| 20260831142030 | 72 | 23 | 2.6 | 5.2 | 0.01 | 0.49 | 0.49 | 84 | 1017.9 |
| 20260831141524 | 71 | 298 | 0.0 | 3.5 | 0.01 | 0.49 | 0.49 | 86 | 1017.6 |
| 20260831141018 | 71 | 297 | 0.9 | 7.8 | 0.01 | 0.49 | 0.49 | 88 | 1017.7 |
| 20260831140532 | 71 | 296 | 2.6 | 7.8 | 0.01 | 0.49 | 0.49 | 88 | 1017.6 |
| 20260831140038 | 70 | 327 | 1.7 | 8.7 | 0.01 | 0.49 | 0.49 | 89 | 1017.6 |
| 20260831135517 | 70 | 280 | 2.6 | 8.7 | 0.01 | 0.49 | 0.49 | 90 | 1017.7 |
| 20260831135015 | 70 | 285 | 2.6 | 6.1 | 0.01 | 0.49 | 0.49 | 90 | 1017.7 |
| 20260831134530 | 70 | 284 | 1.7 | 8.7 | 0.01 | 0.49 | 0.49 | 90 | 1017.7 |
| 20260831134023 | 70 | 286 | 6.1 | 8.7 | 0.01 | 0.49 | 0.49 | 91 | 1017.8 |
| 20260831133517 | 70 | 274 | 3.5 | 8.7 | 0.01 | 0.49 | 0.49 | 90 | 1017.8 |
| 20260831133031 | 70 | 277 | 4.3 | 7.8 | 0.01 | 0.49 | 0.49 | 90 | 1017.8 |
| 20260831132525 | 70 | 277 | 4.3 | 7.0 | 0.00 | 0.48 | 0.48 | 90 | 1017.9 |
| 20260831132020 | 69 | 313 | 0.9 | 5.2 | 0.01 | 0.48 | 0.48 | 90 | 1017.8 |
| 20260831131513 | 69 | 342 | 1.7 | 9.6 | 0.01 | 0.48 | 0.48 | 91 | 1017.9 |
| 20260831131031 | 69 | 355 | 4.3 | 9.6 | 0.02 | 0.48 | 0.48 | 91 | 1018.0 |
| 20260831130525 | 69 | 333 | 1.7 | 4.3 | 0.11 | 0.48 | 0.48 | 91 | 1018.2 |
| 20260831130031 | 69 | 342 | 1.7 | 7.0 | 0.30 | 0.48 | 0.48 | 91 | 1018.3 |
| 20260831125531 | 69 | 291 | 2.6 | 6.1 | 0.43 | 0.48 | 0.48 | 91 | 1018.8 |
| 20260831125025 | 69 | 310 | 2.6 | 4.3 | 0.46 | 0.48 | 0.48 | 91 | 1018.7 |
| 20260831124519 | 69 | 354 | 1.7 | 7.0 | 0.46 | 0.48 | 0.48 | 91 | 1019.2 |
| 20260831124014 | 69 | 13 | 3.5 | 7.0 | 0.46 | 0.48 | 0.48 | 91 | 1018.4 |
| 20260831123528 | 69 | 25 | 3.5 | 7.8 | 0.46 | 0.48 | 0.48 | 91 | 1018.7 |
| 20260831123026 | 69 | 305 | 0.9 | 6.1 | 0.46 | 0.48 | 0.48 | 91 | 1018.6 |
| 20260831122520 | 69 | 335 | 2.6 | 9.6 | 0.46 | 0.48 | 0.48 | 90 | 1018.5 |
| 20260831122014 | 69 | 358 | 3.5 | 8.7 | 0.46 | 0.47 | 0.47 | 90 | 1018.5 |
| 20260831121528 | 69 | 355 | 3.5 | 8.7 | 0.47 | 0.47 | 0.47 | 90 | 1018.1 |
| 20260831121022 | 70 | 8 | 2.6 | 7.0 | 0.46 | 0.46 | 0.46 | 89 | 1018.2 |
| 20260831120516 | 70 | 311 | 0.9 | 4.3 | 0.34 | 0.34 | 0.35 | 88 | 1018.0 |
| 20260831120040 | 71 | 305 | 1.7 | 4.3 | 0.18 | 0.18 | 0.18 | 85 | 1018.2 |
| 20260831115524 | 72 | 308 | 1.7 | 6.1 | 0.05 | 0.05 | 0.05 | 82 | 1018.1 |
| 20260831115018 | 73 | 308 | 1.7 | 6.1 | 0.02 | 0.02 | 0.02 | 80 | 1017.6 |
| 20260831114532 | 73 | 293 | 2.6 | 13.9 | 0.02 | 0.02 | 0.02 | 78 | 1017.5 |
| 20260831114025 | 72 | 287 | 4.3 | 14.8 | 0.02 | 0.02 | 0.02 | 80 | 1017.5 |
| 20260831113520 | 72 | 261 | 7.0 | 14.8 | 0.02 | 0.02 | 0.02 | 82 | 1017.4 |
| 20260831113014 | 72 | 273 | 8.7 | 14.8 | 0.02 | 0.02 | 0.02 | 82 | 1017.0 |
| 20260831112528 | 72 | 264 | 8.7 | 14.8 | 0.02 | 0.02 | 0.02 | 83 | 1017.0 |
| 20260831112022 | 74 | 266 | 7.0 | 17.4 | 0.00 | 0.00 | 0.00 | 78 | 1016.9 |
| 20260831111015 | 75 | 248 | 11.3 | 21.7 | 0.00 | 0.00 | 0.00 | 69 | 1016.6 |
| 20260831110529 | 76 | 267 | 9.6 | 24.3 | 0.00 | 0.00 | 0.00 | 67 | 1016.7 |
| 20260831110034 | 78 | 240 | 10.4 | 24.3 | 0.00 | 0.00 | 0.00 | 63 | 1016.4 |
| 20260831105514 | 82 | 244 | 7.0 | 13.0 | 0.00 | 0.00 | 0.00 | 52 | 1016.4 |
| 20260831105028 | 82 | 329 | 3.5 | 5.2 | 0.00 | 0.00 | 0.00 | 52 | 1016.0 |